Hourly Weather Kozyryany

Today, 24 October, Saturday

Time Temperature Precipitation Wind Pressure Humidity
00:00 +12°C° 0 mm 0 mps 743 mmHg 61%
01:00 +12°C° 0 mm 0 mps 743 mmHg 61%
02:00 +12°C° 0 mm 0 mps 743 mmHg 62%
03:00 +12°C° 0 mm 0 mps 743 mmHg 62%
04:00 +13°C° 0 mm 1 mps 742 mmHg 62%
05:00 +13°C° 0 mm 1 mps 742 mmHg 63%
06:00 +13°C° 0 mm 1 mps 742 mmHg 62%
07:00 +13°C° 0 mm 2 mps 742 mmHg 62%
08:00 +13°C° 0 mm 2 mps 743 mmHg 62%
09:00 +15°C° 0 mm 2 mps 743 mmHg 59%
10:00 +16°C° 0 mm 2 mps 742 mmHg 55%
11:00 +18°C° 0 mm 2 mps 742 mmHg 52%
12:00 +18°C° 0 mm 2 mps 742 mmHg 53%
13:00 +19°C° 0 mm 2 mps 742 mmHg 53%
14:00 +19°C° 0 mm 2 mps 743 mmHg 54%
15:00 +19°C° 0 mm 2 mps 743 mmHg 58%
16:00 +18°C° 0 mm 2 mps 743 mmHg 62%
17:00 +17°C° 0 mm 2 mps 743 mmHg 66%
18:00 +16°C° 0 mm 2 mps 743 mmHg 69%
19:00 +16°C° 0 mm 2 mps 743 mmHg 72%
20:00 +15°C° 0 mm 2 mps 744 mmHg 75%
21:00 +15°C° 0 mm 2 mps 744 mmHg 79%
22:00 +14°C° 0 mm 2 mps 744 mmHg 83%
23:00 +13°C° 0 mm 2 mps 744 mmHg 87%

Tomorrow, 25 October, Sunday

Time Temperature Precipitation Wind Pressure Humidity
00:00 +13°C° 0 mm 2 mps 745 mmHg 88%
01:00 +13°C° 0 mm 2 mps 745 mmHg 90%
02:00 +12°C° 0 mm 1 mps 745 mmHg 91%
03:00 +12°C° 0 mm 1 mps 745 mmHg 91%
04:00 +12°C° 0 mm 1 mps 745 mmHg 91%
05:00 +12°C° 0 mm 1 mps 745 mmHg 91%
06:00 +12°C° 0 mm 1 mps 745 mmHg 90%
07:00 +12°C° 0 mm 1 mps 745 mmHg 89%
08:00 +12°C° 0 mm 1 mps 745 mmHg 87%
09:00 +13°C° 0.1 mm 1 mps 745 mmHg 85%
10:00 +13°C° 0.1 mm 2 mps 745 mmHg 83%
11:00 +14°C° 0.1 mm 2 mps 745 mmHg 80%
12:00 +15°C° 0 mm 2 mps 745 mmHg 76%
13:00 +16°C° 0 mm 3 mps 745 mmHg 73%
14:00 +17°C° 0 mm 3 mps 744 mmHg 69%
15:00 +16°C° 0 mm 3 mps 744 mmHg 72%
16:00 +16°C° 0 mm 3 mps 744 mmHg 74%
17:00 +14°C° 0 mm 3 mps 743 mmHg 77%
18:00 +14°C° 0 mm 3 mps 744 mmHg 79%
19:00 +14°C° 0 mm 3 mps 744 mmHg 80%
20:00 +13°C° 0 mm 3 mps 744 mmHg 81%
21:00 +13°C° 0 mm 3 mps 744 mmHg 82%
22:00 +13°C° 0 mm 3 mps 744 mmHg 82%
23:00 +13°C° 0 mm 3 mps 744 mmHg 83%

Day after tomorrow, 26 October, Monday

Time Temperature Precipitation Wind Pressure Humidity
00:00 +13°C° 0.1 mm 3 mps 744 mmHg 83%
01:00 +13°C° 0.1 mm 3 mps 744 mmHg 84%
02:00 +13°C° 0.1 mm 3 mps 744 mmHg 85%
03:00 +12°C° 0 mm 3 mps 743 mmHg 87%
04:00 +12°C° 0 mm 3 mps 743 mmHg 88%
05:00 +11°C° 0 mm 3 mps 743 mmHg 90%
06:00 +11°C° 0 mm 3 mps 743 mmHg 89%
07:00 +12°C° 0 mm 3 mps 743 mmHg 88%
08:00 +12°C° 0 mm 4 mps 743 mmHg 87%
09:00 +13°C° 0 mm 4 mps 743 mmHg 82%
10:00 +14°C° 0 mm 4 mps 743 mmHg 76%
11:00 +17°C° 0 mm 4 mps 743 mmHg 71%
12:00 +17°C° 0 mm 4 mps 743 mmHg 69%
13:00 +18°C° 0 mm 4 mps 742 mmHg 67%
14:00 +18°C° 0 mm 4 mps 742 mmHg 66%
15:00 +18°C° 0 mm 3 mps 742 mmHg 69%
16:00 +17°C° 0 mm 3 mps 742 mmHg 73%
17:00 +16°C° 0 mm 3 mps 742 mmHg 76%
18:00 +16°C° 0 mm 2 mps 742 mmHg 79%
19:00 +15°C° 0 mm 2 mps 742 mmHg 81%
20:00 +14°C° 0 mm 2 mps 743 mmHg 83%
21:00 +14°C° 0 mm 2 mps 743 mmHg 85%
22:00 +14°C° 0 mm 2 mps 743 mmHg 86%
23:00 +14°C° 0 mm 2 mps 743 mmHg 87%

, 27 October, Tuesday

Time Temperature Precipitation Wind Pressure Humidity
00:00 +13°C° 0 mm 2 mps 743 mmHg 88%
01:00 +13°C° 0 mm 2 mps 743 mmHg 89%
02:00 +13°C° 0 mm 2 mps 743 mmHg 90%
03:00 +12°C° 0 mm 2 mps 743 mmHg 90%
04:00 +12°C° 0 mm 2 mps 743 mmHg 91%
05:00 +12°C° 0 mm 2 mps 743 mmHg 91%
06:00 +12°C° 0 mm 2 mps 743 mmHg 91%
07:00 +12°C° 0 mm 2 mps 744 mmHg 91%
08:00 +12°C° 0 mm 2 mps 744 mmHg 91%
09:00 +13°C° 0 mm 2 mps 744 mmHg 86%
10:00 +14°C° 0 mm 3 mps 744 mmHg 80%
11:00 +17°C° 0 mm 3 mps 744 mmHg 75%
12:00 +17°C° 0 mm 3 mps 743 mmHg 72%
13:00 +18°C° 0 mm 4 mps 743 mmHg 70%
14:00 +19°C° 0 mm 4 mps 743 mmHg 67%
15:00 +18°C° 0 mm 3 mps 743 mmHg 71%
16:00 +17°C° 0 mm 3 mps 743 mmHg 75%
17:00 +16°C° 0 mm 3 mps 743 mmHg 78%
18:00 +16°C° 0 mm 3 mps 743 mmHg 81%
19:00 +14°C° 0 mm 3 mps 743 mmHg 84%
20:00 +13°C° 0 mm 3 mps 743 mmHg 87%
21:00 +14°C° 0 mm 2 mps 743 mmHg 88%
22:00 +14°C° 0 mm 2 mps 743 mmHg 89%
23:00 +14°C° 0 mm 2 mps 743 mmHg 90%

27 October, Tuesday

Time Temperature Precipitation Wind Pressure Humidity
00:00 +13°C° 0 mm 2 mps 743 mmHg 88%
01:00 +13°C° 0 mm 2 mps 743 mmHg 89%
02:00 +13°C° 0 mm 2 mps 743 mmHg 90%
03:00 +12°C° 0 mm 2 mps 743 mmHg 90%
04:00 +12°C° 0 mm 2 mps 743 mmHg 91%
05:00 +12°C° 0 mm 2 mps 743 mmHg 91%
06:00 +12°C° 0 mm 2 mps 743 mmHg 91%
07:00 +12°C° 0 mm 2 mps 744 mmHg 91%
08:00 +12°C° 0 mm 2 mps 744 mmHg 91%
09:00 +13°C° 0 mm 2 mps 744 mmHg 86%
10:00 +14°C° 0 mm 3 mps 744 mmHg 80%
11:00 +17°C° 0 mm 3 mps 744 mmHg 75%
12:00 +17°C° 0 mm 3 mps 743 mmHg 72%
13:00 +18°C° 0 mm 4 mps 743 mmHg 70%
14:00 +19°C° 0 mm 4 mps 743 mmHg 67%
15:00 +18°C° 0 mm 3 mps 743 mmHg 71%
16:00 +17°C° 0 mm 3 mps 743 mmHg 75%
17:00 +16°C° 0 mm 3 mps 743 mmHg 78%
18:00 +16°C° 0 mm 3 mps 743 mmHg 81%
19:00 +14°C° 0 mm 3 mps 743 mmHg 84%
20:00 +13°C° 0 mm 3 mps 743 mmHg 87%
21:00 +14°C° 0 mm 2 mps 743 mmHg 88%
22:00 +14°C° 0 mm 2 mps 743 mmHg 89%
23:00 +14°C° 0 mm 2 mps 743 mmHg 90%

28 October, Wednesday

Time Temperature Precipitation Wind Pressure Humidity
00:00 +13°C° 0 mm 2 mps 743 mmHg 91%
01:00 +13°C° 0 mm 2 mps 743 mmHg 92%
02:00 +13°C° 0 mm 2 mps 743 mmHg 93%
03:00 +13°C° 0 mm 2 mps 743 mmHg 94%
04:00 +12°C° 0 mm 3 mps 743 mmHg 95%
05:00 +12°C° 0 mm 3 mps 744 mmHg 96%
06:00 +12°C° 0 mm 3 mps 744 mmHg 96%
07:00 +12°C° 0 mm 3 mps 744 mmHg 96%
08:00 +12°C° 0 mm 3 mps 744 mmHg 96%
09:00 +13°C° 0 mm 3 mps 744 mmHg 92%
10:00 +13°C° 0 mm 4 mps 744 mmHg 88%
11:00 +14°C° 0 mm 4 mps 744 mmHg 84%
12:00 +15°C° 0 mm 4 mps 744 mmHg 81%
13:00 +15°C° 0 mm 4 mps 744 mmHg 78%
14:00 +17°C° 0 mm 4 mps 744 mmHg 75%
15:00 +16°C° 0 mm 3 mps 744 mmHg 77%
16:00 +16°C° 0 mm 3 mps 744 mmHg 80%
17:00 +15°C° 0 mm 2 mps 744 mmHg 83%
18:00 +15°C° 0 mm 2 mps 744 mmHg 85%
19:00 +14°C° 0 mm 2 mps 744 mmHg 86%
20:00 +13°C° 0 mm 2 mps 744 mmHg 88%
21:00 +13°C° 0 mm 2 mps 744 mmHg 88%
22:00 +13°C° 0 mm 2 mps 744 mmHg 88%
23:00 +12°C° 0 mm 2 mps 745 mmHg 88%

29 October, Thursday

Time Temperature Precipitation Wind Pressure Humidity
00:00 +12°C° 0 mm 2 mps 744 mmHg 87%
01:00 +12°C° 0 mm 2 mps 744 mmHg 86%
02:00 +12°C° 0 mm 2 mps 744 mmHg 86%
03:00 +10°C° 0 mm 2 mps 744 mmHg 86%
04:00 +11°C° 0 mm 1 mps 744 mmHg 86%
05:00 +11°C° 0 mm 1 mps 744 mmHg 86%
06:00 +11°C° 0 mm 1 mps 745 mmHg 86%
07:00 +11°C° 0 mm 1 mps 745 mmHg 85%
08:00 +11°C° 0 mm 1 mps 745 mmHg 85%
09:00 +12°C° 0 mm 1 mps 745 mmHg 81%
10:00 +14°C° 0 mm 1 mps 745 mmHg 77%
11:00 +15°C° 0 mm 1 mps 745 mmHg 72%
12:00 +15°C° 0 mm 1 mps 745 mmHg 71%
13:00 +16°C° 0 mm 1 mps 745 mmHg 70%
14:00 +18°C° 0 mm 1 mps 745 mmHg 69%
15:00 +16°C° 0 mm 1 mps 745 mmHg 72%
16:00 +15°C° 0 mm 1 mps 745 mmHg 75%
17:00 +15°C° 0 mm 1 mps 745 mmHg 79%
18:00 +14°C° 0 mm 1 mps 746 mmHg 81%
19:00 +13°C° 0 mm 1 mps 746 mmHg 84%
20:00 +13°C° 0 mm 1 mps 746 mmHg 87%
21:00 +13°C° 0 mm 1 mps 747 mmHg 88%
22:00 +12°C° 0 mm 1 mps 747 mmHg 89%
23:00 +12°C° 0 mm 1 mps 747 mmHg 90%
Show more